Powrót do katalogu

SL-12 DEB

LostHEO
NORAD 41698·DEBRIS·🇷🇺 Russia

Wystrzelony Mar 1, 2010 z Baikonur Cosmodrome

Loading…

Następne Przeloty (najbliższe 24 godziny)

TLE

NieaktualneSource: Space-Track

Epoka: Feb 27, 2023, 17:07 UTC

1 41698U 10007Q   23058.71380551  .00013492  00000-0  13362-1 0  9999
2 41698  64.6104 217.7222 5696708 349.0052   2.4278  4.37901071135754

Śledź SL-12 DEB w czasie rzeczywistym z AllMySat

Download on the App Store